ZHONGXING-9

Last updated on Thu Nov 21 2024 00:02:41 GMT+0000 (Coordinated Universal Time)

1 33051U 08028A 24325.54464723 -.00000246 00000+0 00000+0 0 9992 2 33051 0.0139 268.4856 0004523 346.9853 92.8620 1.00269149 60283
UTC large
Height (km)
Speed (km/s)
/
Latitude / Longitude
Inclination (degrees)
Orbital Period (minutes)
Azimuth
Elevation
Range (km)
Doppler Factor

Next 0 passes for location: London (51.5072 / 0.1276)

Sorry there are no passes over London.